Torna al catalogo

CZ-6A DEB

AttivoPO
NORAD 56651·DEBRIS·🇨🇳 China

Lanciato Nov 11, 2022 da Taiyuan Satellite Launch Center

Loading…

Prossimi Passaggi (prossime 24 ore)

TLE

AggiornatoSource: Space-Track

Epoca: Sep 13, 2026, 10:54 UTC

1 56651U 22151AGB 26256.45446919  .00008660  00000-0  12127-2 0  9992
2 56651  98.6049 327.8962 0058324 352.6579   7.3769 14.76623833188818

Traccia CZ-6A DEB in tempo reale con AllMySat

Download on the App Store